[[{"header":{"parameterUnit":"m.s-1","parameterCategory":1,"la1":30.2992,"la2":30.254,"lo1":-89.0895,"lo2":-89.0443,"dy":0.0025,"dx":0.0025,"nx":19,"ny":19,"refTime":"2026-04-24T09:00:00:Z","depth":0,"parameterNumber":2,"parameterNumberName":"U-component_of_WINDS"},"data":[0,0,0,1.6652,1.6654,1.6759,1.6759,1.6901,1.6903,0,0,0,0,0,0,0,0,0,0,0,1.6626,1.6627,1.6652,1.6655,1.6759,1.6759,1.6901,1.6903,0,0,0,0,0,0,0,0,0,0,0,1.6625,1.6626,1.6628,1.6655,1.6759,1.676,1.6901,1.6819,0,0,0,0,0,0,0,0,0,0,1.6716,1.6696,1.6626,1.6628,1.6656,1.6759,1.676,1.6815,1.6824,1.6857,0,1.6887,0,1.6897,1.6913,1.6913,0,0,0,1.6652,1.6688,1.6712,1.6628,1.6657,1.6759,1.6711,1.682,1.683,1.6869,1.6889,1.6894,1.6899,1.6913,1.6914,1.7112,1.7113,0,0,1.6646,1.6647,1.6705,1.6719,1.6703,1.6708,1.6714,1.6826,1.6848,1.689,1.6897,1.6902,1.6914,1.6916,1.7111,1.7112,0,0,0,1.6631,1.6643,1.6664,1.6714,1.6732,1.6711,1.6718,1.6843,1.685,1.6899,1.6903,1.6915,1.6917,1.711,1.7111,1.7163,0,0,0,1.6628,1.6635,1.6662,1.6664,1.673,1.6789,1.6733,1.6842,1.6855,1.6903,1.6915,1.6919,1.7108,1.711,1.7159,1.7188,0,0,0,1.6617,1.6633,1.665,1.6663,1.6708,1.6787,1.68,1.6845,1.6858,1.6913,1.6919,1.7108,1.711,1.7156,1.7182,1.7239,0,0,0,1.6607,1.6696,1.6651,1.6753,1.6707,1.6818,1.6799,1.6882,1.6936,1.6916,1.7109,1.7111,1.7155,1.7179,1.7235,1.7286,1.7308,0,0,1.672,1.671,1.677,1.6732,1.6851,1.6802,1.693,1.6979,1.6984,1.7069,1.7074,1.7161,1.7182,1.7238,1.743,1.7447,0,0,0,1.6806,1.6849,1.688,1.6931,1.697,1.7005,1.7034,1.7052,1.7124,1.7027,1.7197,1.721,1.7243,1.7267,1.7282,1.7309,1.7123,1.7122,1.7122,1.6969,1.6969,1.7067,1.708,1.7129,1.7157,1.7197,1.7226,1.7214,1.7254,1.7279,1.7395,1.7424,1.7434,1.7463,1.7307,1.7307,1.7307,1.7307,1.7134,1.7194,1.7173,1.7261,1.7261,1.7335,1.7366,1.7354,1.7423,1.7377,1.7406,1.7355,1.7453,1.7478,1.7311,1.7311,1.731,1.731,1.7309,1.7239,1.7268,1.7287,1.7359,1.7415,1.7425,1.7492,1.749,1.7489,1.7518,1.7543,1.7542,1.754,1.753,1.753,1.7531,1.7531,1.7531,1.7532,1.734,1.736,1.7416,1.7464,1.7495,1.7536,1.7565,1.7596,1.763,1.7624,1.7624,1.7606,1.7463,1.7426,1.7538,1.7537,1.7536,1.7535,1.7535,1.7506,1.7467,1.7554,1.7585,1.764,1.7695,1.7691,1.7754,1.778,1.7813,1.7789,1.7684,1.7673,1.7662,1.7631,1.7789,1.7789,1.7789,1.7789,1.7593,1.7588,1.7674,1.7724,1.7773,1.7778,1.7875,1.7898,1.7917,1.7932,1.7909,1.7869,1.7857,1.7854,1.7838,1.781,1.8009,1.801,1.801,1.7694,1.7693,1.7776,1.7792,1.7834,1.7871,1.7962,1.802,1.8033,1.8019,1.7944,1.7935,1.787,1.7849,1.7832,1.7808,1.7755,0,0]},{"header":{"parameterUnit":"m.s-1","parameterCategory":1,"la1":30.2992,"la2":30.254,"lo1":-89.0895,"lo2":-89.0443,"dy":0.0025,"dx":0.0025,"nx":19,"ny":19,"refTime":"2026-04-24T09:00:00:Z","depth":0,"parameterNumber":3,"parameterNumberName":"V-component_of_WINDS"},"data":[0,0,0,2.4084,2.4087,2.4193,2.4194,2.4326,2.4327,0,0,0,0,0,0,0,0,0,0,0,2.4052,2.4053,2.4084,2.4087,2.4193,2.4194,2.4326,2.4327,0,0,0,0,0,0,0,0,0,0,0,2.4052,2.4053,2.4054,2.4087,2.4193,2.4194,2.4326,2.4246,0,0,0,0,0,0,0,0,0,0,2.4143,2.4114,2.4053,2.4054,2.4088,2.4193,2.4194,2.4242,2.4251,2.4277,0,2.4301,0,2.4316,2.4336,2.4337,0,0,0,2.4087,2.4106,2.4136,2.4054,2.4089,2.4193,2.4145,2.4247,2.4257,2.4288,2.4303,2.4308,2.4319,2.4337,2.4338,2.449,2.4491,0,0,2.4081,2.4071,2.4129,2.4142,2.4127,2.4142,2.4149,2.4253,2.4268,2.4303,2.4311,2.4321,2.4338,2.4339,2.4489,2.449,0,0,0,2.4064,2.4067,2.4094,2.4137,2.4156,2.4145,2.4153,2.4263,2.4273,2.4313,2.4322,2.4339,2.434,2.4489,2.449,2.4516,0,0,0,2.4061,2.4057,2.4091,2.4086,2.4154,2.4211,2.416,2.4266,2.4278,2.4322,2.4339,2.4342,2.4488,2.4489,2.4514,2.453,0,0,0,2.4045,2.4055,2.407,2.4085,2.4131,2.421,2.4226,2.4269,2.4284,2.4337,2.4342,2.4487,2.4489,2.4512,2.4527,2.4568,0,0,0,2.4026,2.4091,2.4071,2.4147,2.413,2.4226,2.4225,2.4297,2.4345,2.4339,2.4488,2.449,2.4511,2.4525,2.4566,2.4602,2.4616,0,0,2.4103,2.41,2.4146,2.4131,2.4228,2.421,2.4311,2.4364,2.4378,2.4451,2.4455,2.4515,2.4527,2.4568,2.4696,2.4707,0,0,0,2.4167,2.42,2.4228,2.4274,2.4317,2.4356,2.4395,2.4414,2.4478,2.4414,2.4541,2.4548,2.4573,2.459,2.46,2.4622,2.4497,2.4497,2.4497,2.4261,2.4276,2.4353,2.4381,2.4425,2.4465,2.4503,2.4536,2.4536,2.4566,2.4588,2.4665,2.4685,2.4692,2.4715,2.4608,2.4608,2.4608,2.4608,2.4375,2.4424,2.4425,2.45,2.4515,2.4577,2.4618,2.4616,2.4676,2.4649,2.4671,2.4641,2.4704,2.4724,2.461,2.461,2.461,2.4609,2.4609,2.4439,2.4465,2.4489,2.4558,2.4609,2.4634,2.4692,2.4703,2.4713,2.4735,2.4761,2.476,2.4762,2.4746,2.4747,2.4747,2.4747,2.4747,2.4748,2.4496,2.4522,2.4571,2.4622,2.4654,2.4696,2.4737,2.4768,2.4805,2.4808,2.4808,2.4806,2.4707,2.4683,2.4752,2.4751,2.4751,2.475,2.475,2.4608,2.4585,2.466,2.4691,2.4753,2.4803,2.4816,2.4878,2.4905,2.4933,2.4926,2.4851,2.4849,2.4842,2.4822,2.4923,2.4923,2.4923,2.4923,2.4663,2.4663,2.4742,2.4793,2.4843,2.4862,2.4945,2.4977,2.5006,2.5023,2.501,2.4984,2.4976,2.4978,2.4968,2.4949,2.5081,2.5081,2.5081,2.4733,2.4738,2.4808,2.4838,2.4887,2.4928,2.5007,2.5063,2.509,2.5088,2.5037,2.5031,2.4988,2.4974,2.4971,2.4954,2.4921,0,0]}]]